Santa Monica, CA

7:49 PM PST on February 24, 2017 (GMT -0800)
Santa Monica Municipal

Weather History for KSMO - March, 2014

Change the Weather History Date:

Saturday, March 8, 2014

  Actual Average Record
Temperature  
Mean Temperature 66 °F -  
Max Temperature 78 °F 67 °F 89 °F (2004)
Min Temperature 54 °F 50 °F 39 °F (1949)
Cooling Degree Days 1    
Growing Degree Days 16 (Base 50)    
Moisture  
Dew Point 42 °F    
Average Humidity 43    
Maximum Humidity 62    
Minimum Humidity 17    
Precipitation  
Precipitation 0.00 in - - ()
Sea Level Pressure  
Sea Level Pressure 30.06 in    
Wind  
Wind Speed 3 mph (WNW)    
Max Wind Speed 10 mph    
Max Gust Speed 17 mph    
Visibility 10 miles    
Events      
Averages and records for this station are not official NWS values.
T = Trace of Precipitation, MM = Missing Value Source: NWS Daily Summary

Daily Weather History Graph

Daily Weather History Graph

Search for Another Location

Airport or City:

Trip Planner

Search our weather history database for the weather conditions in past years. The results will help you decide how hot, cold, wet, or windy it might be!

Date:

Astronomy

Mar. 08, 2014 Rise Set
Actual Time 6:13 AM PST 5:56 PM PST
Civil Twilight 5:48 AM PST 6:21 PM PST
Nautical Twilight 5:19 AM PST 6:50 PM PST
Astronomical Twilight 4:50 AM PST 7:19 PM PST
Moon 11:15 AM PST (3/8) 12:41 AM PST (3/8)
Length of Visible Light 12h 32m
Length of Day
11h 42m
First Quarter, 53% of the Moon is Illuminated
Mar 8
First Quarter
Mar 16
Full
Mar 23
Last Quarter
Mar 30
New
Apr 7
First Quarter

Hourly Weather History & Observations

Time (PST) Temp. Dew Point Humidity Pressure Visibility Wind Dir Wind Speed Gust Speed Precip Events Conditions
12:51 AM 59.0 °F 45.0 °F 60% 29.97 in 10.0 mi Calm Calm - N/A   Clear
1:51 AM 59.0 °F 43.0 °F 55% 29.97 in 10.0 mi NNE 3.5 mph - N/A   Clear
2:51 AM 57.0 °F 43.0 °F 59% 29.97 in 10.0 mi NE 3.5 mph - N/A   Clear
3:51 AM 55.0 °F 42.1 °F 62% 29.98 in 10.0 mi Calm Calm - N/A   Clear
4:51 AM 55.0 °F 37.9 °F 53% 30.00 in 10.0 mi Calm Calm - N/A   Clear
5:51 AM 54.0 °F 39.9 °F 59% 30.02 in 10.0 mi North 4.6 mph - N/A   Clear
6:51 AM 57.0 °F 39.0 °F 51% 30.05 in 10.0 mi NE 3.5 mph - N/A   Clear
7:51 AM 64.0 °F 43.0 °F 46% 30.08 in 10.0 mi East 4.6 mph - N/A   Clear
8:51 AM 71.1 °F 39.0 °F 31% 30.09 in 10.0 mi Calm Calm - N/A   Clear
9:51 AM 75.0 °F 37.9 °F 26% 30.09 in 10.0 mi Variable 3.5 mph - N/A   Clear
10:51 AM 77.0 °F 37.9 °F 24% 30.09 in 10.0 mi SSW 6.9 mph - N/A   Clear
11:51 AM 78.1 °F 28.9 °F 17% 30.09 in 10.0 mi West 8.1 mph - N/A   Clear
12:51 PM 78.1 °F 36.0 °F 22% 30.07 in 10.0 mi WSW 8.1 mph - N/A   Clear
1:51 PM 78.1 °F 33.1 °F 19% 30.06 in 10.0 mi WSW 10.4 mph 17.3 mph N/A   Clear
2:51 PM 78.1 °F 33.1 °F 19% 30.06 in 10.0 mi SW 8.1 mph - N/A   Clear
3:51 PM 75.9 °F 39.9 °F 27% 30.05 in 10.0 mi SW 9.2 mph - N/A   Clear
4:51 PM 72.0 °F 50.0 °F 46% 30.05 in 10.0 mi SW 8.1 mph - N/A   Clear
5:51 PM 70.0 °F 48.0 °F 46% 30.05 in 10.0 mi WSW 4.6 mph - N/A   Clear
6:51 PM 69.1 °F 48.9 °F 49% 30.06 in 10.0 mi Calm Calm - N/A   Clear
7:51 PM 66.9 °F 50.0 °F 54% 30.07 in 10.0 mi Calm Calm - N/A   Clear
8:51 PM 66.0 °F 51.1 °F 59% 30.10 in 10.0 mi Calm Calm - N/A   Clear
9:51 PM 66.0 °F 48.9 °F 54% 30.12 in 10.0 mi Calm Calm - N/A   Clear
10:51 PM 66.9 °F 46.0 °F 47% 30.12 in 10.0 mi NNE 4.6 mph - N/A   Clear
11:51 PM 66.9 °F 39.9 °F 37% 30.12 in 10.0 mi North 3.5 mph - N/A   Clear